Meteo Giornale » Osservazioni meteo Stati Uniti (USA) » Keene-Dillant
ore: 17:56 - Osservazioni Meteo Keene-Dillant
Lat. 42° 54' N Lon. 72° 16' W Alt. 149 metri s.l.m.
19 °C
Coperto
Temp. 24 Ore
18 °C
22 °C
Nord
0 Km/h
Dew point 18 °C
Umidità 93 %
Visibilità 10 Km
Il sole sorge alle ore 06:13
Il sole tramonta alle ore 19:24
| Data e Ora | Cielo e Fenomeni | T °C | DP °C | Um. % | Pres. hPa | Vis. km | Vento km/h | |
|---|---|---|---|---|---|---|---|---|
| Oggi h: 17:56 | Coperto | 19 | 18 | 93 | 1018 | 10 | N 0 | |
| Oggi h: 17:48 | Coperto | 19 | 18 | 93 | 1018 | 10 | N 0 | |
| Oggi h: 17:41 | Coperto | 19 | 18 | 93 | 1018 | 10 | N 0 | |
| Oggi h: 17:16 | Coperto | 19 | 18 | 93 | 1018 | 10 | N 0 | |
| Oggi h: 16:56 | Coperto | 19 | 18 | 93 | 1018 | 10 | N 5.5 | |
| Oggi h: 16:38 | Coperto | 19 | 18 | 93 | 1017 | 10 | N 0 | |
| Oggi h: 15:56 | Coperto | 19 | 18 | 93 | 1017 | 10 | N 0 | |
| Oggi h: 15:34 | Coperto | 19 | 18 | 93 | 1017 | 10 | NE 7.4 | |
| Oggi h: 15:10 | Coperto | 19 | 18 | 93 | 1017 | 10 | NE 11.1 | |
| Oggi h: 14:56 | Coperto | 19 | 18 | 93 | 1017 | 10 | N 0 | |
| Oggi h: 13:56 | Pioggia | 18 | 18 | 100 | 1017 | 10 | NE 11.1 | |
| Oggi h: 12:56 | Pioggia | 18 | 18 | 100 | 1017 | 10 | N 5.5 | |
| Oggi h: 11:56 | Pioggia Foschia | 18 | 18 | 100 | 1017 | 6 | N 5.5 | |
| Oggi h: 11:42 | Pioggia Foschia | 18 | 18 | 100 | 1017 | 8 | E 7.4 | |
| Oggi h: 11:16 | Coperto | 19 | 19 | 100 | 1017 | 10 | E/NE 11.1 | |
| Oggi h: 10:56 | Pioggia | 20 | 20 | 100 | 1017 | 10 | N 0 | |
| Oggi h: 10:28 | Pioggia | 20 | 19 | 93 | 1017 | 14 | N 5.5 | |
| Oggi h: 10:04 | Coperto | 19 | 19 | 100 | 1017 | 10 | N 0 | |
| Oggi h: 09:56 | Coperto | 19 | 19 | 100 | 1017 | 10 | N 5.5 | |
| Oggi h: 09:27 | Coperto | 19 | 19 | 100 | 1017 | 10 | N 0 | |
| Oggi h: 08:56 | Pioggia | 19 | 0 | 27 | 1017 | 10 | N 0 | |
| Oggi h: 08:29 | Pioggia | 18 | 0 | 29 | 1018 | 14 | N 5.5 | |
| Oggi h: 07:56 | Pioggia | 18 | 0 | 29 | 1018 | 8 | N 0 | |
| Oggi h: 07:19 | Pioggia | 18 | 0 | 29 | 1018 | 5 | N 0 | |
| Oggi h: 07:12 | Pioggia Foschia | 18 | 18 | 100 | 1018 | 2 | N 0 | |
| Oggi h: 06:56 | Pioggia | 18 | 18 | 100 | 1017 | 10 | N 0 | |
| Oggi h: 06:48 | Coperto | 18 | 18 | 100 | 1017 | 10 | N 0 | |
| Oggi h: 05:56 | Coperto | 18 | 18 | 100 | 1017 | 10 | N 0 | |
| Oggi h: 05:46 | Coperto | 18 | 18 | 100 | 1017 | 10 | N 0 | |
| Oggi h: 04:56 | Coperto | 19 | 18 | 93 | 1017 | 10 | N 0 | |
| Oggi h: 04:04 | Coperto | 18 | 18 | 100 | 1017 | 10 | N 0 | |
| Oggi h: 03:56 | Coperto | 18 | 18 | 100 | 1017 | 10 | N 0 | |
| Oggi h: 02:56 | Coperto | 18 | 18 | 100 | 1018 | 10 | N 0 | |
| Oggi h: 01:56 | Coperto | 18 | 18 | 100 | 1018 | 10 | N 0 | |
| Oggi h: 00:56 | Coperto | 19 | 18 | 93 | 1018 | 10 | N 0 | |
| Ieri h: 23:56 | Coperto | 19 | 18 | 93 | 1018 | 10 | N 0 | |
| Ieri h: 22:56 | Coperto | 19 | 18 | 93 | 1018 | 10 | N 0 | |
| Ieri h: 21:56 | Coperto | 20 | 18 | 88 | 1018 | 10 | N 0 | |
| Ieri h: 20:56 | Molto Nuvoloso | 21 | 18 | 82 | 1018 | 10 | N 0 | |
| Ieri h: 19:56 | Nuvoloso | 21 | 18 | 82 | 1018 | 10 | N 0 | |
| Ieri h: 18:56 | Coperto | 22 | 18 | 78 | 1018 | 10 | N 5.5 | |



